TimePST,TemperatureF,Dew PointF,Humidity,Sea Level PressureIn,VisibilityMPH,Wind Direction,Wind SpeedMPH,Gust SpeedMPH,PrecipitationIn,Events,Conditions,WindDirDegrees,DateUTC
12:56 AM,35.1,1.9,25,30.18,10.0,Calm,Calm,-,N/A,,Clear,0,2013-01-23 08:56:00
1:56 AM,32.0,-0.0,26,30.18,10.0,Calm,Calm,-,N/A,,Clear,0,2013-01-23 09:56:00
2:56 AM,35.1,3.0,26,30.18,10.0,Calm,Calm,-,N/A,,Clear,0,2013-01-23 10:56:00
3:56 AM,36.0,3.9,26,30.17,10.0,SSW,5.8,-,N/A,,Clear,210,2013-01-23 11:56:00
4:56 AM,30.9,-0.0,27,30.18,10.0,Calm,Calm,-,N/A,,Overcast,0,2013-01-23 12:56:00
5:56 AM,33.1,3.0,28,30.19,10.0,SSW,3.5,-,N/A,,Overcast,200,2013-01-23 13:56:00
6:56 AM,34.0,3.0,27,30.21,10.0,Calm,Calm,-,N/A,,Overcast,0,2013-01-23 14:56:00
8:56 AM,37.0,3.0,24,30.23,10.0,Calm,Calm,-,N/A,,Overcast,0,2013-01-23 16:56:00
9:56 AM,45.0,5.0,19,30.23,10.0,SSE,4.6,-,N/A,,Overcast,160,2013-01-23 17:56:00
10:56 AM,53.1,7.0,16,30.22,10.0,Calm,Calm,-,N/A,,Overcast,0,2013-01-23 18:56:00
11:56 AM,54.0,6.1,15,30.17,10.0,Calm,Calm,-,N/A,,Overcast,0,2013-01-23 19:56:00
12:56 PM,55.0,6.1,14,30.15,10.0,Calm,Calm,-,N/A,,Overcast,0,2013-01-23 20:56:00
1:56 PM,55.9,7.0,14,30.14,10.0,Calm,Calm,-,N/A,,Overcast,0,2013-01-23 21:56:00
2:56 PM,57.0,7.0,14,30.12,10.0,Calm,Calm,-,N/A,,Overcast,0,2013-01-23 22:56:00
3:56 PM,55.9,8.1,15,30.12,10.0,Calm,Calm,-,N/A,,Overcast,0,2013-01-23 23:56:00
4:56 PM,54.0,10.9,18,30.12,10.0,Calm,Calm,-,N/A,,Overcast,0,2013-01-24 00:56:00
5:56 PM,51.1,7.0,17,30.13,10.0,Calm,Calm,-,N/A,,Overcast,0,2013-01-24 01:56:00
6:56 PM,51.1,8.1,18,30.14,10.0,South,4.6,-,N/A,,Mostly Cloudy,180,2013-01-24 02:56:00
7:56 PM,50.0,8.1,18,30.15,10.0,Calm,Calm,-,N/A,,Overcast,0,2013-01-24 03:56:00
8:56 PM,48.9,8.1,19,30.16,10.0,Calm,Calm,-,N/A,,Overcast,0,2013-01-24 04:56:00
9:56 PM,50.0,9.0,19,30.17,10.0,Calm,Calm,-,N/A,,Overcast,0,2013-01-24 05:56:00
10:56 PM,48.0,27.0,44,30.18,10.0,Calm,Calm,-,0.00,Rain,Light Rain,0,2013-01-24 06:56:00
11:56 PM,45.0,34.0,65,30.17,10.0,NW,6.9,-,0.00,Rain,Light Rain,310,2013-01-24 07:56:00